Погода Шамары

Погода Шамары : погода сейчас, прогноз погоды и архив. Всё, что Вы хотите узнать о погоде Шамары!

Поиск расширенной информации на нашем сайте:

Другие новости

Новости СМИ2

Главная страница сайта

Новости сайта

03.07.2017

Напоминаем, что на нашем специализированном сайте Метеоцентр.Азия вы можете получить высокодетализированные автоматические прогнозы погоды по пунктам России, СНГ и мира в авиационном формате (включающие направление и скорость ветра, видимость, явления погоды, количество и форму облачности, нижнюю и верхнюю границу облачности).


Погода Шамары - сегодня

Время (UTC), дата Ветер
(°,м/с) 
Видим.   Явления Облачность Т
(°С)
Тd
(°С)
f(%) Тe
(°С)
Pmin
(гПа)
dP
(гПа)
Po
(мм)
O2
(г/м3)
Тmin Tmax R s Состояние
почвы
12 19.02.18 200 (Ю) 20000 м  {снег}  9/3 300 м средняя, верхняя 
[Cu hum|Ac As|Ci]
-5.1 -10.6 65 -7  1026.9  -1.6  746  307           
18 19.02.18 160 (Ю) 4000 м  слаб. снег  10/10 300 м 
[Ns]
-7 -9.5 82 -7  1024.3  -1.4  744  309           
21 19.02.18 200 (Ю) 4000 м  слаб. снег  10/10 300 м 
[Ns]
-6.9 -9.4 82 -7  1023.1  -1.2  743  308           
00 20.02.18 170 (Ю) 2000 м  снег  10/10 300 м 
[Ns]
-7.1 -9.3 84 -9  1021.7  -1.3  742  308           
03 20.02.18 160 (Ю) 2000 м  снег  10/10 300 м 
[Ns]
-7.1 -9.2 85 -7  1019.8  -1.8  741  307  -7.3    37  равномерный
сухой снег
100% 
06 20.02.18 210 (ЮЗ) 10 км  слаб. снег  10/0 средняя 
[As op]
-6.3 -9.6 77 -9  1018.5  -1.2  740  306           
09 20.02.18 230 (ЮЗ) 4000 м  снег  10/3 300 м средняя 
[Cu hum|As op]
-5 -8.5 76 -5  1016.7  -1.6  739  304           
12 20.02.18 240 (ЮЗ) 10 км  слаб. ливневой снег  9/8 300 м кучево-дожд., средняя 
[Cb calv|As trans]
-5.8 -8.5 81 -5  1015.5  -1.2  738  305           
18 20.02.18 220 (ЮЗ) 4000 м  слаб. снег{ливн. осадки}  9/0 средняя 
[As op]
-9.4 -11 88 -9  1014.9  -0.5  737  309           
21 20.02.18 240 (ЮЗ) 4000 м  слаб. снег  8/0 средняя 
[As op]
-11.6 -13.3 87 -11  1014.7  -0.4  737  311           
00 21.02.18 220 (ЮЗ) 10 км  слаб. снег  9/8 300 м средняя 
[Cu hum|As op]
-11.7 -13.5 86 -12  1014.3  -0.4  737  311           
03 21.02.18 210 (ЮЗ) 10 км  слаб. снег  10/0 средняя 
[Ac As]
-13.1 -15.1 85 -13  1014.1  -0.4  736  313  -14.1    0.7  39  равномерный
сухой снег
100% 
09 21.02.18 240 (ЮЗ) 10 км  слаб. ливневой снег  10/8 300 м кучево-дожд., средняя 
[Cb calv|Ac As]
-7.6 -11.6 73 -10  1012.9  -0.6  736  306           
12 21.02.18 240 (ЮЗ) 4000 м  слаб. ливневой снег  10/8 300 м кучево-дожд., средняя 
[Cb calv|Ac As]
-7.4 -10.1 81 -9  1012.8  736  306           
18 21.02.18 220 (ЮЗ) 2000 м  слаб. снег{ливн. осадки}  9/0 средняя 
[Ac As]
-9.5 -11.7 84 -11  1013.8  0.3  736  309           
21 21.02.18 210 (ЮЗ) 2000 м  снег  10/0 средняя 
[Ac As]
-11.5 -13.5 85 -13  1014.2  0.1  737  311           
00 22.02.18 230 (ЮЗ) 2000 м  снег  10/0 средняя 
[Ac As]
-11.5 -13.5 85 -13  1014.5  0.3  737  311           
03 22.02.18 220 (ЮЗ) 10 км  слаб. снег  10/0 средняя, верхняя 
[Ac As|Cs]
-13.5 -15.7 83 -16  1014.7  737  314  -13.5    42  равномерный
сухой снег
100% 
09 22.02.18 230 (ЮЗ) 10 км  слаб. снег{ливн. осадки}  10/3 300 м средняя 
[Cu hum|Ac As]
-10.3 -14.7 70 -14  1015  0.1  737  310           
12 22.02.18 230 (ЮЗ) 10 км  слаб. снег{ливн. осадки}  10/4 300 м кучево-дожд., средняя 
[Cb calv|As trans]
-10.8 -14.3 75 -15  1015.9  0.8  738  311           
18 22.02.18 220 (ЮЗ) 2000 м  слаб. снег  10/0 средняя 
[Ac As]
-14.4 -16.9 81 -18  1018.3  0.9  739  316           
21 22.02.18 220 (ЮЗ) 2000 м  слаб. снег  10/0 средняя 
[As op]
-15.6 -18.2 80 -18  1019  0.5  740  318           
00 23.02.18 230 (ЮЗ) 4000 м  слаб. снег  9/0 средняя 
[As op]
-17.7 -20.3 80 -20  1019.8  0.5  740  320           
03 23.02.18 230 (ЮЗ) 20000 м  {снег}  3/0 средняя 
[Ac lent]
-20.5 -23.1 80 -21  1020.6  0.5  740  324  -20.6    0.6  43  равномерный
сухой снег
100% 
09 23.02.18 220 (ЮЗ) 20000 м    9/8 300 м средняя 
[Cu hum|Ac cuf]
-14.3 -18.8 69 -18  1020.2  0.1  741  316           
Время (UTC), дата Ветер
(°,м/с) 
Видим.   Явления Облачность Т
(°С)
Тd
(°С)
f(%) Тe
(°С)
Pmin
(гПа)
dP
(гПа)
Po
(мм)
O2
(г/м3)
Тmin Tmax R s Состояние
почвы

Для получения пояснительной информации подведите курсор к названию столбца.

ПОГОДА Шамары - архив

Всё, что Вы хотите узнать о погоде Шамары - удобно и подробно!

Выберите нужную дату (начиная с 1 января 2015* года) и нажмите кнопку "Найти".
Будут отображены архивные сводки погоды по пункту Шамары, начиная с указанной даты.


Отображать данные в формате CSV (для использования в таблицах Excel)


Внимание! Наш архив погоды предназначен исключительно для личного некоммерческого использования в познавательных целях. Если Вам необходимы официальные справки о состоянии погоды (для производственных, юридических, коммерческих и т.п. целей), обращайтесь в органы Росгидромета.

*Примечание: данная дата относится к архиву по метеостанциям СССР (Россия, СНГ, Балтия).
Архив по метеостанциям Зарубежной Европы и Азии (кроме Китая) хранится 10 дней, по другим регионам земного шара (Китай, Африка, Америка, Австралия, Океания) - 1 день.

Шамары - район местоположения метеостанции


Название, широта, долгота, высота метеостанции:
Шамары 57.3°ш. 58.2°д. 244 м над ур. моря [Российская Федерация]

Дополнительная информация

В oтличие oт бoльшинства пoгoдных сайтoв мы публикуем пoдрoбную метеoинфoрмацию в детальнoм прoфессиoнальнoм фoрмате.

Характеристики температуры и влажнoсти вoздуха измеряются на высoте 2 м в тени вдали oт зданий и деревьев.
Скoрoсть ветра измеряется на высoте 10 м (на урoвне рoста челoвека скoрoсть ветра ниже в 1.5-2 раза). Если метеoстанция нахoдится в гoрoде или в лесу, тo скoрoсть ветра занижена на 2-4 м/с пo сравнению с oткрытым местoм. Скoрoсть ветра над акватoриями крупных рек и oзёр, а также на вершинах хoлмoв на 2-5 м/с выше, чем в oбычных услoвиях.
Атмoсфернoе давление в разных тoчках местнoсти мoжет значительнo oтличаться oт давления на метеoстанции, в зависимoсти oт услoвий рельефа (при пoдъёме на 10 м давление пoнижается примернo на 1 мм рт.ст.).